Location: Natural Bridges National Monument
(37.6093°N, 109.9767°W)
Time: 12:53:08
(UTC-07:00)

Amateur Radio Satellites - All Passes

Search period start: 02 December 2016 12:23
Search period end: 03 December 2016 12:23
Location: Natural Bridges National Monument, 37.6093°N, 109.9767°W

Satellite Date Start Highest point End Downlink Frequencies (MHz)
Time Altitude Azimuth
DX 1 02 Dec 12:32:45 12:37:02 50° 100° (E) 12:41:17 434.975-435.025
Cosmos 2499 02 Dec 12:39:13 12:47:57 90° 265° (W) 12:56:02 435.465 / 435.565
AO-85 02 Dec 12:39:33 12:43:23 53° 244° (WSW) 12:47:10 145.980
ESTCUBE 1 02 Dec 12:40:33 12:44:22 27° 290° (WNW) 12:48:10 437.505/2401.250
UKube-1 02 Dec 12:48:13 12:52:30 56° 101° (E) 12:56:44 .
BUGSAT 1 02 Dec 12:50:02 12:53:21 23° 265° (W) 12:56:43 437.445
50 SAT 02 Dec 12:50:45 12:54:09 45° 286° (WNW) 12:57:33 437.505
Gurwin Techsat 1B 02 Dec 12:51:26 12:56:15 36° 69° (ENE) 13:01:04 435.225
RS-15 02 Dec 12:53:41 13:01:11 17° 356° (N) 13:08:44 29.354- 29.394
AO-7 02 Dec 13:04:29 13:09:04 16° 51° (NE) 13:13:39 29.400- 29.500
JUGNU 02 Dec 13:04:36 13:05:44 11° 170° (S) 13:06:51 437.505
AISAT 02 Dec 13:04:41 13:08:43 34° 289° (WNW) 13:12:44 437.250
SPROUT 02 Dec 13:09:56 13:14:02 45° 287° (WNW) 13:18:07 437.525
TISAT 1 02 Dec 13:11:25 13:15:00 26° 96° (E) 13:18:31 437.305
PCSat 02 Dec 13:25:32 13:30:25 34° 305° (NW) 13:35:20 145.827
Oscar 19 02 Dec 13:28:34 13:33:30 49° 260° (W) 13:38:29 437.125/150
M-CUBED/EXP-1 PRIME 02 Dec 13:36:29 13:37:41 11° 94° (E) 13:38:52 437.505
VELOX 1 02 Dec 13:43:08 13:45:41 15° 295° (WNW) 13:48:13 145.980
ITAMSAT 1 02 Dec 13:48:26 13:52:51 28° 67° (ENE) 13:57:16 435.822/435.867
GONETS M04 02 Dec 14:03:43 14:10:56 31° 276° (W) 14:18:11
DX 1 02 Dec 14:10:30 14:12:46 14° 295° (WNW) 14:15:01 434.975-435.025
SWISSCUBE 02 Dec 14:17:57 14:22:08 30° 97° (E) 14:26:17 437.505
BEESAT 02 Dec 14:22:27 14:26:38 30° 97° (E) 14:30:47 436.000
UKube-1 02 Dec 14:26:13 14:28:02 12° 296° (WNW) 14:29:49 .
Gurwin Techsat 1B 02 Dec 14:31:49 14:36:12 26° 265° (W) 14:40:37 435.225
Cosmos 2499 02 Dec 14:35:05 14:39:38 16° 283° (WNW) 14:44:04 435.465 / 435.565
BEESAT 3 02 Dec 14:37:15 14:40:47 29° 53° (NE) 14:44:16 437.485
ITUPSAT 1 02 Dec 14:46:58 14:51:38 54° 101° (E) 14:56:17 437.325
TISAT 1 02 Dec 14:47:07 14:50:29 23° 291° (WNW) 14:53:49 437.305
JUGNU 02 Dec 14:51:09 14:53:52 13° 180° (S) 14:56:34 437.505
AO-7 02 Dec 14:52:12 15:00:28 76° 70° (ENE) 15:08:48 29.400- 29.500
BEESAT 2 02 Dec 14:57:42 15:00:59 23° 51° (NE) 15:04:13 435.950
AUBIESAT-1 02 Dec 14:59:12 15:03:50 76° 106° (ESE) 15:08:17 437.475
M-CUBED/EXP-1 PRIME 02 Dec 15:07:52 15:12:33 71° 290° (WNW) 15:17:06 437.505
RS-15 02 Dec 15:09:54 15:19:59 27° 32° (NNE) 15:29:52 29.354- 29.394
ITAMSAT 1 02 Dec 15:27:32 15:32:11 32° 263° (W) 15:36:50 435.822/435.867
KKS-1 02 Dec 15:28:48 15:31:07 14° 92° (E) 15:33:25 437.445
HORYU 2 02 Dec 15:40:27 15:42:28 13° 64° (ENE) 15:44:30 437.375
SWISSCUBE 02 Dec 15:55:54 15:59:46 25° 292° (WNW) 16:03:37 437.505
BEESAT 02 Dec 16:00:23 16:04:16 25° 292° (WNW) 16:08:08 436.000
O/OREOS (USA 219) 02 Dec 16:03:25 16:07:01 23° 102° (ESE) 16:10:38 437.305
MOZHAYETS 4 02 Dec 16:04:06 16:08:41 89° 103° (ESE) 16:13:14
BEESAT 3 02 Dec 16:15:10 16:18:13 21° 249° (WSW) 16:21:15 437.485
SRMSAT 02 Dec 16:22:37 16:24:58 12° 175° (S) 16:27:20 437.500
ITUPSAT 1 02 Dec 16:26:19 16:28:59 15° 296° (WNW) 16:31:39 437.325
ISS 02 Dec 16:31:20 16:33:15 15° 129° (SE) 16:35:11 145.825
CUTE-I 02 Dec 16:34:06 16:37:19 16° 63° (ENE) 16:40:34 437.470
BEESAT 2 02 Dec 16:35:15 16:38:45 29° 247° (WSW) 16:42:13 435.950
AUBIESAT-1 02 Dec 16:35:54 16:37:32 12° 303° (WNW) 16:39:10 437.475
GOMX 1 02 Dec 16:41:10 16:44:52 26° 68° (ENE) 16:48:47 467.674
JUGNU 02 Dec 16:41:11 16:41:59 10° 191° (S) 16:42:48 437.505
BRITE-PL 02 Dec 16:44:25 16:48:35 72° 76° (ENE) 16:53:00 437.365/2234.400
AO-7 02 Dec 16:48:07 16:53:55 21° 267° (W) 16:59:46 29.400- 29.500
AIST 2 02 Dec 16:50:55 16:52:23 12° 43° (NE) 16:53:52 435.215
Cubesat XI-IV 02 Dec 16:57:19 17:01:44 27° 67° (ENE) 17:06:09 437.490
LilacSat-2 02 Dec 16:59:58 17:02:54 21° 70° (ENE) 17:05:50 437.200
KKS-1 02 Dec 17:03:35 17:07:55 48° 287° (WNW) 17:12:13 437.445
NOAA 15 02 Dec 17:08:09 17:12:56 37° 69° (ENE) 17:17:43 137.62
DOVE 4 02 Dec 17:11:47 17:15:32 24° 67° (ENE) 17:19:27 437.250
HORYU 2 02 Dec 17:14:05 17:18:30 58° 259° (W) 17:22:56 437.375
STARS 02 Dec 17:20:34 17:24:59 69° 285° (WNW) 17:29:21 437.465
RS-15 02 Dec 17:22:25 17:34:52 79° 58° (ENE) 17:46:50 29.354- 29.394
CUBESAT XI-V 02 Dec 17:32:57 17:37:36 74° 284° (WNW) 17:42:16 437.345
HO-68 02 Dec 17:36:35 17:40:48 17° 56° (ENE) 17:45:00 435.675
O/OREOS (USA 219) 02 Dec 17:42:13 17:46:15 30° 298° (WNW) 17:50:17 437.305
NOAA 18 02 Dec 17:47:20 17:52:40 52° 71° (ENE) 17:58:02 137.9125
Cosmos 2491 02 Dec 18:05:34 18:13:49 44° 76° (ENE) 18:22:00 435.465 / 435.565
ISS 02 Dec 18:06:15 18:09:27 49° 324° (NW) 18:12:40 145.825
SRMSAT 02 Dec 18:10:51 18:13:16 13° 185° (S) 18:15:41 437.500
CUTE-I 02 Dec 18:11:30 18:16:49 62° 259° (WSW) 18:22:09 437.470
GOMX 1 02 Dec 18:19:11 18:22:53 26° 266° (W) 18:26:47 467.674
AIST 2 02 Dec 18:27:11 18:31:25 82° 243° (WSW) 18:35:37 435.215
YUBILEINY 02 Dec 18:33:10 18:40:14 29° 83° (E) 18:47:19 435.215
LilacSat-2 02 Dec 18:33:53 18:37:02 24° 264° (W) 18:40:12 437.200
Cubesat XI-IV 02 Dec 18:36:40 18:41:35 37° 262° (W) 18:46:33 437.490
CUTE 1.7 + AOD 2 02 Dec 18:37:10 18:40:37 25° 70° (ENE) 18:44:05 437.475
NOAA 15 02 Dec 18:48:33 18:52:45 24° 265° (W) 18:56:59 137.62
DOVE 4 02 Dec 18:48:52 18:53:00 32° 265° (W) 18:57:24 437.250
CANX-2 02 Dec 18:53:40 18:57:43 46° 74° (ENE) 19:01:45 2200.000
CINEMA 3 02 Dec 18:57:31 19:02:20 78° 75° (ENE) 19:07:21 145.822/145.860
UWE-3 02 Dec 18:59:03 19:01:13 13° 65° (ENE) 19:03:22 435.000/436.395/437.385
AAUSAT CUBESAT 2 02 Dec 19:19:37 19:23:01 26° 70° (ENE) 19:26:26 437.432
HO-68 02 Dec 19:20:22 19:27:32 89° 252° (WSW) 19:34:45 435.675
SEEDS 02 Dec 19:27:10 19:31:17 66° 76° (ENE) 19:35:26 437.485
NOAA 18 02 Dec 19:29:44 19:33:35 19° 266° (W) 19:37:27 137.9125
STRAND 1 02 Dec 19:36:08 19:41:14 68° 102° (ESE) 19:46:17 437.568
RS-15 02 Dec 19:36:33 19:46:01 27° 259° (WSW) 19:55:15 29.354- 29.394
AIST 1 02 Dec 19:40:02 19:43:25 23° 89° (E) 19:46:50
CUBEBUG 2 02 Dec 19:41:46 19:46:25 58° 75° (ENE) 19:51:05 437.445
COMPASS 1 02 Dec 19:45:03 19:49:09 70° 75° (ENE) 19:53:16 437.405
ISS 02 Dec 19:45:25 19:46:36 11° 342° (NNW) 19:47:47 145.825
ZACube-1 02 Dec 19:47:09 19:50:55 26° 70° (ENE) 19:54:39 437.345
FUNcube-1 02 Dec 19:56:55 20:00:52 30° 71° (ENE) 20:04:48 145.935
Cosmos 2491 02 Dec 20:02:43 20:10:24 37° 274° (W) 20:18:05 435.465 / 435.565
Cosmos 2504 02 Dec 20:08:40 20:16:36 59° 90° (E) 20:25:05 435.465 / 435.565
CUTE 1.7 + AOD 2 02 Dec 20:12:58 20:16:23 23° 265° (W) 20:19:47 437.475
YUBILEINY 02 Dec 20:27:59 20:36:27 56° 282° (WNW) 20:45:01 435.215
CANX-2 02 Dec 20:31:51 20:33:46 13° 268° (W) 20:35:43 2200.000
Oscar 11 02 Dec 20:32:12 20:36:30 71° 75° (ENE) 20:40:48 145.826/435.025
PCSat 02 Dec 20:32:18 20:36:09 19° 48° (NE) 20:39:58 145.827
UWE-3 02 Dec 20:32:30 20:37:07 61° 259° (W) 20:41:44 435.000/436.395/437.385
PRISM 02 Dec 20:33:04 20:35:34 16° 94° (E) 20:38:05 437.425
DELFI C3 02 Dec 20:51:21 20:54:59 37° 73° (ENE) 20:58:37 145.870
AAUSAT CUBESAT 2 02 Dec 20:55:14 20:58:25 22° 265° (W) 21:01:38 437.432
SO-50 02 Dec 21:07:42 21:12:30 88° 120° (ESE) 21:17:15 436.795
HO-68 02 Dec 21:12:45 21:16:05 14° 270° (W) 21:19:24 435.675
STRAND 1 02 Dec 21:17:19 21:19:48 14° 298° (WNW) 21:22:17 437.568
AIST 1 02 Dec 21:17:21 21:20:53 24° 285° (WNW) 21:24:26
CUBEBUG 2 02 Dec 21:21:09 21:23:21 13° 269° (W) 21:25:32 437.445
ZACube-1 02 Dec 21:23:09 21:27:03 28° 264° (W) 21:30:59 437.345
UNISAT 6 02 Dec 21:32:03 21:34:44 16° 92° (E) 21:37:22 437.425
FUNcube-1 02 Dec 21:33:25 21:37:03 23° 265° (W) 21:40:41 145.935
CUSAT 1 02 Dec 21:33:55 21:37:16 43° 262° (W) 21:41:33 437.405
DANDE 02 Dec 21:43:19 21:45:54 37° 80° (E) 21:48:55 436.750
HUMSAT D 02 Dec 21:47:59 21:52:14 85° 258° (WSW) 21:56:28 437.325/437.525
ESTCUBE 1 02 Dec 22:02:09 22:05:17 19° 67° (ENE) 22:08:24 437.505/2401.250
TIGRISAT 02 Dec 22:02:14 22:06:12 32° 97° (E) 22:10:04 435.000
ANTELSAT 02 Dec 22:02:37 22:06:40 34° 97° (E) 22:10:36 437.575/2403.000
Cosmos 2504 02 Dec 22:03:37 22:10:29 28° 291° (WNW) 22:17:43 435.465 / 435.565
PRISM 02 Dec 22:07:09 22:10:59 37° 288° (WNW) 22:14:49 437.425
PCSat 02 Dec 22:14:37 22:19:59 63° 247° (WSW) 22:25:18 145.827
AISAT 02 Dec 22:25:19 22:27:44 15° 65° (ENE) 22:30:10 437.250
DELFI C3 02 Dec 22:27:57 22:29:55 13° 267° (W) 22:31:54 145.870
JAS-2 02 Dec 22:41:02 22:44:17 17° 93° (E) 22:47:35 435.910
SO-50 02 Dec 22:51:20 22:53:35 13° 318° (NW) 22:55:49 436.795
NANOSAT C BR1 02 Dec 22:58:16 23:00:18 13° 92° (E) 23:02:19 145.865
CUBEBUG 1 02 Dec 22:59:18 23:03:27 47° 73° (ENE) 23:07:39 437.445
QB50P2 02 Dec 22:59:52 23:02:34 16° 93° (E) 23:05:14 145.880/145.840
ISS 02 Dec 23:00:06 23:02:08 15° 23° (NNE) 23:04:09 145.825
POLYITAN 1 02 Dec 23:00:38 23:03:11 15° 93° (E) 23:05:43 437.675
VELOX 1 02 Dec 23:00:44 23:04:39 33° 71° (ENE) 23:08:38 145.980
UNISAT 6 02 Dec 23:07:29 23:11:38 40° 288° (WNW) 23:15:40 437.425
QB50P1 02 Dec 23:14:15 23:17:36 22° 95° (E) 23:20:55 145.935-145.965
DUCHIFAT 1 02 Dec 23:21:18 23:24:40 23° 95° (E) 23:27:59 145.980
50 SAT 02 Dec 23:23:51 23:27:14 46° 74° (ENE) 23:30:37 437.505
Cosmos 2499 02 Dec 23:24:43 23:28:23 13° 75° (ENE) 23:32:05 435.465 / 435.565
DX 1 02 Dec 23:26:23 23:30:18 34° 71° (ENE) 23:34:14 434.975-435.025
POPSAT HIP 1 02 Dec 23:34:54 23:38:53 38° 98° (E) 23:42:48 437.405
ESTCUBE 1 02 Dec 23:37:40 23:41:47 37° 262° (W) 23:45:57 437.505/2401.250
TIGRISAT 02 Dec 23:39:24 23:42:39 20° 293° (WNW) 23:45:50 435.000
ANTELSAT 02 Dec 23:39:59 23:43:06 19° 293° (WNW) 23:46:09 437.575/2403.000
UKube-1 02 Dec 23:40:46 23:44:42 36° 71° (ENE) 23:48:40 .
AISAT 02 Dec 23:59:30 00:03:45 48° 260° (W) 00:08:04 437.250
SPROUT 03 Dec 00:00:46 00:05:04 79° 258° (WSW) 00:09:24 437.525
TISAT 1 03 Dec 00:01:56 00:04:34 16° 66° (ENE) 00:07:13 437.305
JAS-2 03 Dec 00:24:41 00:29:40 49° 288° (WNW) 00:34:48 435.910
NANOSAT C BR1 03 Dec 00:32:12 00:36:14 45° 287° (WNW) 00:40:14 145.865
BUGSAT 1 03 Dec 00:32:38 00:36:48 58° 100° (E) 00:40:53 437.445
QB50P2 03 Dec 00:34:34 00:38:28 36° 288° (WNW) 00:42:21 145.880/145.840
POLYITAN 1 03 Dec 00:35:10 00:39:07 38° 288° (WNW) 00:43:01 437.675
ISS 03 Dec 00:35:43 00:39:03 90° 126° (SE) 00:42:20 145.825
CUBEBUG 1 03 Dec 00:37:50 00:39:58 13° 268° (W) 00:42:06 437.445
VELOX 1 03 Dec 00:37:58 00:41:09 20° 265° (W) 00:44:24 145.980
QB50P1 03 Dec 00:49:44 00:53:18 27° 290° (WNW) 00:56:52 145.935-145.965
DUCHIFAT 1 03 Dec 00:56:45 01:00:16 26° 290° (WNW) 01:03:45 145.980
DX 1 03 Dec 01:03:29 01:06:32 19° 266° (W) 01:09:37 434.975-435.025
GONETS M04 03 Dec 01:04:20 01:12:55 65° 92° (E) 01:21:30
PHONESAT 2.4 03 Dec 01:08:49 01:10:40 17° 148° (SSE) 01:12:30 2401.200-2431.200
Gurwin Techsat 1B 03 Dec 01:10:36 01:13:49 16° 92° (E) 01:17:02 435.225
Cosmos 2499 03 Dec 01:11:31 01:19:53 79° 94° (E) 01:28:44 435.465 / 435.565
POPSAT HIP 1 03 Dec 01:11:39 01:14:19 17° 293° (WNW) 01:17:00 437.405
UKube-1 03 Dec 01:17:59 01:20:50 17° 266° (W) 01:23:42 .
SWISSCUBE 03 Dec 01:22:35 01:26:40 29° 69° (ENE) 01:30:46 437.505
BEESAT 03 Dec 01:27:02 01:31:07 29° 69° (ENE) 01:35:12 436.000
TISAT 1 03 Dec 01:35:53 01:39:51 39° 261° (W) 01:43:52 437.305
Oscar 19 03 Dec 01:41:43 01:46:53 68° 102° (ESE) 01:52:03 437.125/150
AUBIESAT-1 03 Dec 01:42:45 01:46:41 65° 71° (ENE) 01:50:57 437.475
ITUPSAT 1 03 Dec 01:51:38 01:56:15 51° 73° (ENE) 02:00:53 437.325
M-CUBED/EXP-1 PRIME 03 Dec 01:51:56 01:55:50 78° 252° (WSW) 02:00:07 437.505
ITAMSAT 1 03 Dec 02:05:49 02:06:46 10° 90° (E) 02:07:42 435.822/435.867
BUGSAT 1 03 Dec 02:10:22 02:11:37 11° 296° (WNW) 02:12:51 437.445
O/OREOS (USA 219) 03 Dec 02:14:34 02:18:36 32° 63° (ENE) 02:22:37 437.305
KKS-1 03 Dec 02:26:29 02:27:41 11° 63° (ENE) 02:28:53 437.445
PHONESAT 2.4 03 Dec 02:43:02 02:45:42 85° 341° (NNW) 02:48:22 2401.200-2431.200
Gurwin Techsat 1B 03 Dec 02:48:53 02:54:05 56° 288° (WNW) 02:59:16 435.225
AO-85 03 Dec 02:50:48 02:55:49 75° 119° (ESE) 03:00:28 145.980
AO-7 03 Dec 02:56:49 03:03:43 28° 96° (E) 03:10:34 29.400- 29.500
SWISSCUBE 03 Dec 03:00:23 03:04:24 26° 264° (W) 03:08:25 437.505
GONETS M04 03 Dec 03:03:29 03:10:20 25° 291° (WNW) 03:17:13
MOZHAYETS 4 03 Dec 03:03:41 03:08:14 67° 76° (ENE) 03:12:49
BEESAT 03 Dec 03:04:48 03:08:49 27° 264° (W) 03:12:51 436.000
Cosmos 2499 03 Dec 03:07:53 03:14:00 21° 294° (WNW) 03:20:21 435.465 / 435.565
Oscar 19 03 Dec 03:22:54 03:25:36 14° 298° (WNW) 03:28:18 437.125/150
ITUPSAT 1 03 Dec 03:31:37 03:34:20 15° 267° (W) 03:37:03 437.325
ITAMSAT 1 03 Dec 03:41:34 03:46:46 79° 285° (WNW) 03:51:55 435.822/435.867
O/OREOS (USA 219) 03 Dec 03:54:27 03:57:46 21° 259° (W) 04:01:03 437.305
KKS-1 03 Dec 03:59:11 04:03:37 68° 258° (WSW) 04:08:07 437.445
STARS 03 Dec 04:14:46 04:19:11 81° 75° (ENE) 04:23:38 437.465
PHONESAT 2.4 03 Dec 04:18:34 04:21:07 40° 360° (N) 04:23:40 2401.200-2431.200
AO-85 03 Dec 04:33:59 04:36:40 15° 314° (NW) 04:39:15 145.980
CUBESAT XI-V 03 Dec 04:34:00 04:38:35 85° 77° (ENE) 04:43:13 437.345
MOZHAYETS 4 03 Dec 04:45:13 04:45:48 10° 270° (W) 04:46:23
GOMX 1 03 Dec 04:46:07 04:47:58 12° 89° (E) 04:49:49 467.674
YUBILEINY 03 Dec 04:47:27 04:50:22 12° 60° (ENE) 04:53:16 435.215
AO-7 03 Dec 04:48:39 04:56:51 61° 293° (WNW) 05:05:01 29.400- 29.500
BRITE-PL 03 Dec 04:50:03 04:54:51 31° 96° (E) 04:59:48 437.365/2234.400
HORYU 2 03 Dec 05:07:09 05:11:02 29° 97° (E) 05:14:53 437.375
Cubesat XI-IV 03 Dec 05:18:34 05:20:02 11° 90° (E) 05:21:30 437.490
NOAA 15 03 Dec 05:26:15 05:29:24 16° 92° (E) 05:32:32 137.62
SO-50 03 Dec 05:41:09 05:45:29 44° 54° (NE) 05:49:44 436.795
RS-15 03 Dec 05:42:33 05:43:41 10° 93° (E) 05:44:50 29.354- 29.394
PHONESAT 2.4 03 Dec 05:53:54 05:56:34 78° 13° (NNE) 05:59:13 2401.200-2431.200
BEESAT 3 03 Dec 06:02:21 06:06:14 83° 301° (WNW) 06:10:11 437.485
Cosmos 2504 03 Dec 06:05:04 06:11:07 20° 65° (ENE) 06:16:59 435.465 / 435.565
LilacSat-2 03 Dec 06:08:22 06:11:54 38° 98° (E) 06:15:25 437.200
NOAA 18 03 Dec 06:11:52 06:16:25 25° 96° (E) 06:20:54 137.9125
GOMX 1 03 Dec 06:21:04 06:26:32 82° 284° (WNW) 06:32:02 467.674
BEESAT 2 03 Dec 06:24:13 06:28:07 75° 119° (ESE) 06:32:06 435.950
BRITE-PL 03 Dec 06:28:29 06:33:12 32° 290° (WNW) 06:38:06 437.365/2234.400
CUTE-I 03 Dec 06:30:27 06:35:45 62° 101° (ESE) 06:41:00 437.470
YUBILEINY 03 Dec 06:40:07 06:48:56 69° 81° (E) 06:57:43 435.215
HORYU 2 03 Dec 06:43:56 06:47:24 23° 292° (WNW) 06:50:51 437.375
AO-7 03 Dec 06:44:51 06:47:54 12° 313° (NW) 06:50:58 29.400- 29.500
DOVE 4 03 Dec 06:48:41 06:54:02 82° 102° (ESE) 06:59:14 437.250
STRAND 1 03 Dec 06:49:56 06:55:04 80° 75° (ENE) 07:00:13 437.568
HO-68 03 Dec 06:51:46 06:56:38 19° 92° (E) 07:01:27 435.675
CINEMA 3 03 Dec 06:55:14 06:58:59 22° 93° (E) 07:02:37 145.822/145.860
Cubesat XI-IV 03 Dec 06:55:18 07:00:39 79° 285° (WNW) 07:05:58 437.490
Cosmos 2491 03 Dec 07:03:54 07:12:22 55° 90° (E) 07:20:49 435.465 / 435.565
NOAA 15 03 Dec 07:04:19 07:09:29 57° 287° (WNW) 07:14:38 137.62
SEEDS 03 Dec 07:14:43 07:16:28 12° 92° (E) 07:18:12 437.485
SO-50 03 Dec 07:22:38 07:25:33 17° 251° (WSW) 07:28:28 436.795
AIST 1 03 Dec 07:25:12 07:29:35 64° 82° (E) 07:33:56
PHONESAT 2.4 03 Dec 07:29:39 07:31:38 19° 210° (SSW) 07:33:36 2401.200-2431.200
COMPASS 1 03 Dec 07:31:26 07:33:16 13° 92° (E) 07:35:06 437.405
CUBEBUG 2 03 Dec 07:36:37 07:38:45 13° 91° (E) 07:40:51 437.445
RS-15 03 Dec 07:42:02 07:53:24 62° 112° (ESE) 08:05:19 29.354- 29.394
LilacSat-2 03 Dec 07:44:05 07:45:50 13° 293° (WNW) 07:47:34 437.200
NOAA 18 03 Dec 07:52:01 07:57:07 39° 291° (WNW) 08:02:12 137.9125
Cosmos 2504 03 Dec 07:56:44 08:05:36 82° 266° (W) 08:13:57 435.465 / 435.565
CUTE 1.7 + AOD 2 03 Dec 07:58:37 08:02:49 65° 101° (E) 08:06:59 437.475
GOMX 1 03 Dec 08:02:43 08:03:44 10° 299° (WNW) 08:04:44 467.674
BEESAT 2 03 Dec 08:05:13 08:06:25 11° 316° (NW) 08:07:37 435.950
CUTE-I 03 Dec 08:12:04 08:15:14 16° 297° (WNW) 08:18:24 437.470
CANX-2 03 Dec 08:15:58 08:20:08 65° 284° (WNW) 08:24:18 2200.000
Oscar 11 03 Dec 08:22:42 08:25:08 15° 93° (E) 08:27:33 145.826/435.025
AIST 2 03 Dec 08:22:59 08:26:37 31° 113° (ESE) 08:30:18 435.215
UWE-3 03 Dec 08:24:39 08:28:27 29° 96° (E) 08:32:09 435.000/436.395/437.385
DOVE 4 03 Dec 08:28:48 08:30:55 12° 298° (WNW) 08:33:01 437.250
UNISAT 6 03 Dec 08:29:41 08:31:51 13° 64° (ENE) 08:34:02 437.425
CINEMA 3 03 Dec 08:31:47 08:36:10 34° 290° (WNW) 08:40:21 145.822/145.860
STRAND 1 03 Dec 08:34:11 08:34:46 10° 270° (W) 08:35:22 437.568
HO-68 03 Dec 08:37:43 08:44:54 72° 288° (WNW) 08:52:02 435.675
AAUSAT CUBESAT 2 03 Dec 08:38:01 08:42:07 63° 100° (E) 08:46:13 437.432
YUBILEINY 03 Dec 08:38:25 08:44:51 23° 279° (W) 08:51:18 435.215
SEEDS 03 Dec 08:48:22 08:52:23 47° 286° (WNW) 08:56:23 437.485
PRISM 03 Dec 08:53:59 08:58:00 70° 257° (WSW) 09:02:05 437.425
TIGRISAT 03 Dec 08:58:51 09:02:39 25° 69° (ENE) 09:06:26 435.000
ANTELSAT 03 Dec 08:59:19 09:03:14 27° 69° (ENE) 09:07:08 437.575/2403.000
Cosmos 2491 03 Dec 09:02:04 09:09:32 30° 289° (WNW) 09:17:02 435.465 / 435.565
COMPASS 1 03 Dec 09:05:03 09:09:01 45° 286° (WNW) 09:12:59 437.405
CUBEBUG 2 03 Dec 09:11:23 09:15:39 47° 287° (WNW) 09:19:45 437.445
ZACube-1 03 Dec 09:12:47 09:17:02 66° 101° (ESE) 09:21:10 437.345
FUNcube-1 03 Dec 09:22:23 09:26:39 79° 103° (ESE) 09:30:47 145.935
HUMSAT D 03 Dec 09:34:20 09:36:59 17° 93° (E) 09:39:37 437.325/437.525
QB50P2 03 Dec 09:52:40 09:53:30 10° 64° (ENE) 09:54:19 145.880/145.840
Cosmos 2504 03 Dec 09:53:20 09:57:26 14° 284° (WNW) 10:01:28 435.465 / 435.565
POLYITAN 1 03 Dec 09:54:00 09:54:08 10° 63° (ENE) 09:54:16 437.675
RS-15 03 Dec 09:55:27 10:06:28 42° 316° (NW) 10:17:59 29.354- 29.394
Oscar 11 03 Dec 09:57:22 10:01:25 41° 287° (WNW) 10:05:27 145.826/435.025
UWE-3 03 Dec 10:01:28 10:04:42 21° 292° (WNW) 10:07:52 435.000/436.395/437.385
AIST 2 03 Dec 10:01:51 10:05:07 22° 310° (NW) 10:08:25 435.215
UNISAT 6 03 Dec 10:03:22 10:08:01 62° 259° (W) 10:12:40 437.425
DELFI C3 03 Dec 10:04:39 10:08:38 84° 102° (ESE) 10:12:36 145.870
QB50P1 03 Dec 10:05:50 10:08:06 14° 66° (ENE) 10:10:23 145.935-145.965
DUCHIFAT 1 03 Dec 10:12:17 10:14:33 14° 66° (ENE) 10:16:50 145.980
AAUSAT CUBESAT 2 03 Dec 10:16:54 10:17:02 10° 296° (WNW) 10:17:10 437.432
POPSAT HIP 1 03 Dec 10:25:45 10:29:08 23° 69° (ENE) 10:32:32 437.405
HO-68 03 Dec 10:28:27 10:31:22 13° 307° (NW) 10:34:15 435.675
JAS-2 03 Dec 10:33:38 10:40:11 55° 73° (ENE) 10:46:00 435.910
TIGRISAT 03 Dec 10:35:02 10:39:09 30° 263° (W) 10:43:18 435.000
ANTELSAT 03 Dec 10:35:46 10:39:48 28° 264° (W) 10:43:50 437.575/2403.000
CUSAT 1 03 Dec 10:36:08 10:39:11 26° 280° (W) 10:41:46 437.405
DANDE 03 Dec 10:48:38 10:54:03 82° 97° (E) 10:58:03 436.750
CUBEBUG 1 03 Dec 10:52:55 10:53:18 10° 90° (E) 10:53:41 437.445
Cosmos 2499 03 Dec 11:06:36 11:13:32 26° 68° (ENE) 11:20:05 435.465 / 435.565
HUMSAT D 03 Dec 11:09:00 11:12:40 32° 288° (WNW) 11:16:18 437.325/437.525
PCSat 03 Dec 11:12:21 11:16:26 22° 106° (ESE) 11:20:31 145.827
GONETS M04 03 Dec 11:17:33 11:24:50 29° 71° (ENE) 11:32:05
BUGSAT 1 03 Dec 11:20:22 11:24:04 31° 71° (ENE) 11:27:49 437.445
NANOSAT C BR1 03 Dec 11:21:39 11:25:55 82° 257° (WSW) 11:30:12 145.865
QB50P2 03 Dec 11:24:27 11:28:42 65° 259° (W) 11:32:59 145.880/145.840
AO-85 03 Dec 11:24:48 11:28:22 31° 53° (NE) 11:31:51 145.980
POLYITAN 1 03 Dec 11:25:03 11:29:19 69° 258° (WSW) 11:33:37 437.675
ESTCUBE 1 03 Dec 11:31:30 11:35:54 51° 100° (E) 11:40:18 437.505/2401.250
QB50P1 03 Dec 11:39:20 11:43:26 46° 261° (W) 11:47:35 145.935-145.965
DUCHIFAT 1 03 Dec 11:45:44 11:49:49 46° 261° (W) 11:53:56 145.980
SPROUT 03 Dec 11:49:18 11:52:28 20° 94° (E) 11:55:36 437.525
AISAT 03 Dec 11:51:25 11:55:32 35° 98° (E) 11:59:37 437.250
POPSAT HIP 1 03 Dec 12:01:07 12:04:45 27° 264° (W) 12:08:26 437.405
